Time,TemperatureF,DewpointF,PressureIn,WindDirection,WindDirectionDegrees,WindSpeedMPH,WindSpeedGustMPH,Humidity,HourlyPrecipIn,Conditions,Clouds,dailyrainin,SolarRadiationWatts/m^2,SoftwareType,DateUTC
2013-01-16 00:02:00,50.2,38.9,29.94,NNW,333,6.0,8.0,65,0.00,,,0.00,0,Wunderground v.1.15,2013-01-15 23:02:00,
2013-01-16 00:08:00,50.5,39.6,29.93,WNW,286,7.0,9.0,66,0.00,,,0.00,0,Wunderground v.1.15,2013-01-15 23:08:00,
2013-01-16 00:14:00,50.3,39.4,29.93,WNW,287,6.0,7.0,66,0.00,,,0.00,0,Wunderground v.1.15,2013-01-15 23:14:00,
2013-01-16 00:20:00,50.3,38.6,29.93,NW,323,6.0,6.0,64,0.00,,,0.00,0,Wunderground v.1.15,2013-01-15 23:20:00,
2013-01-16 00:26:00,50.3,39.4,29.93,NW,304,5.0,6.0,66,0.00,,,0.00,0,Wunderground v.1.15,2013-01-15 23:26:00,
2013-01-16 00:32:00,50.3,39.4,29.93,NW,309,7.0,11.0,66,0.00,,,0.00,0,Wunderground v.1.15,2013-01-15 23:32:00,
2013-01-16 00:38:00,50.4,39.9,29.93,NNW,345,8.0,11.0,67,0.00,,,0.00,0,Wunderground v.1.15,2013-01-15 23:38:00,
2013-01-16 00:49:00,50.1,39.2,29.93,NW,309,5.0,7.0,66,0.00,,,0.00,0,Wunderground v.1.15,2013-01-15 23:49:00,
2013-01-16 00:56:00,50.2,39.7,29.93,West,269,7.0,10.0,67,0.00,,,0.00,0,Wunderground v.1.15,2013-01-15 23:56:00,
2013-01-16 01:02:00,49.9,37.8,29.94,SW,219,9.0,11.0,63,0.00,,,0.00,0,Wunderground v.1.15,2013-01-16 00:02:00,
2013-01-16 01:08:00,48.7,37.1,29.94,West,265,7.0,11.0,64,0.00,,,0.00,0,Wunderground v.1.15,2013-01-16 00:08:00,
2013-01-16 01:16:00,48.6,37.4,29.93,WNW,291,3.0,6.0,65,0.00,,,0.00,0,Wunderground v.1.15,2013-01-16 00:16:00,
2013-01-16 01:22:00,49.9,39.0,29.92,North,10,8.0,13.0,66,0.00,,,0.00,0,Wunderground v.1.15,2013-01-16 00:22:00,
2013-01-16 01:28:00,50.0,39.5,29.91,NNE,20,9.0,13.0,67,0.00,,,0.00,0,Wunderground v.1.15,2013-01-16 00:28:00,
2013-01-16 01:36:00,50.3,39.8,29.92,WNW,296,9.0,15.0,67,0.00,,,0.00,0,Wunderground v.1.15,2013-01-16 00:36:00,
2013-01-16 01:42:00,50.3,39.8,29.92,West,267,9.0,17.0,67,0.00,,,0.00,0,Wunderground v.1.15,2013-01-16 00:42:00,
2013-01-16 01:50:00,50.2,38.1,29.92,West,271,9.0,11.0,63,0.00,,,0.00,0,Wunderground v.1.15,2013-01-16 00:50:00,
2013-01-16 01:56:00,50.5,38.8,29.92,West,272,11.0,14.0,64,0.00,,,0.00,0,Wunderground v.1.15,2013-01-16 00:56:00,
2013-01-16 02:02:00,50.8,39.8,29.92,NW,321,11.0,11.0,66,0.00,,,0.00,0,Wunderground v.1.15,2013-01-16 01:02:00,
2013-01-16 02:08:00,50.8,39.8,29.92,West,275,7.0,11.0,66,0.00,,,0.00,0,Wunderground v.1.15,2013-01-16 01:08:00,
2013-01-16 02:14:00,51.0,40.4,29.91,WNW,303,7.0,14.0,67,0.00,,,0.00,0,Wunderground v.1.15,2013-01-16 01:14:00,
2013-01-16 02:20:00,51.0,40.4,29.91,NNW,342,6.0,10.0,67,0.00,,,0.00,0,Wunderground v.1.15,2013-01-16 01:20:00,
2013-01-16 02:26:00,51.1,40.5,29.91,NW,317,5.0,11.0,67,0.00,,,0.00,0,Wunderground v.1.15,2013-01-16 01:26:00,
2013-01-16 02:32:00,51.6,41.0,29.91,WNW,294,7.0,9.0,67,0.00,,,0.00,0,Wunderground v.1.15,2013-01-16 01:32:00,
2013-01-16 02:38:00,51.6,40.6,29.91,NW,305,6.0,9.0,66,0.00,,,0.00,0,Wunderground v.1.15,2013-01-16 01:38:00,
2013-01-16 02:46:00,52.2,39.6,29.92,West,277,7.0,10.0,62,0.00,,,0.00,0,Wunderground v.1.15,2013-01-16 01:46:00,
2013-01-16 02:52:00,52.2,40.0,29.92,WNW,295,8.0,9.0,63,0.00,,,0.00,0,Wunderground v.1.15,2013-01-16 01:52:00,
2013-01-16 02:58:00,51.8,40.0,29.92,WNW,283,7.0,9.0,64,0.00,,,0.00,0,Wunderground v.1.15,2013-01-16 01:58:00,
2013-01-16 03:06:00,51.7,40.3,29.91,NW,311,6.0,8.0,65,0.00,,,0.00,0,Wunderground v.1.15,2013-01-16 02:06:00,
2013-01-16 03:12:00,51.9,40.5,29.92,NNW,331,6.0,6.0,65,0.00,,,0.00,0,Wunderground v.1.15,2013-01-16 02:12:00,
2013-01-16 03:18:00,52.1,39.9,29.91,WNW,298,5.0,7.0,63,0.00,,,0.00,0,Wunderground v.1.15,2013-01-16 02:18:00,
2013-01-16 03:26:00,51.9,40.1,29.91,West,259,3.0,6.0,64,0.00,,,0.00,0,Wunderground v.1.15,2013-01-16 02:26:00,
2013-01-16 03:32:00,52.3,39.7,29.90,West,265,5.0,7.0,62,0.00,,,0.00,0,Wunderground v.1.15,2013-01-16 02:32:00,
2013-01-16 03:40:00,51.8,39.6,29.90,West,264,3.0,5.0,63,0.00,,,0.00,0,Wunderground v.1.15,2013-01-16 02:40:00,
2013-01-16 03:46:00,51.9,39.7,29.90,North,355,4.0,5.0,63,0.00,,,0.00,0,Wunderground v.1.15,2013-01-16 02:46:00,
2013-01-16 03:52:00,52.4,39.8,29.89,NW,311,5.0,5.0,62,0.00,,,0.00,0,Wunderground v.1.15,2013-01-16 02:52:00,
2013-01-16 03:58:00,52.6,39.5,29.90,WSW,242,6.0,6.0,61,0.00,,,0.00,0,Wunderground v.1.15,2013-01-16 02:58:00,
2013-01-16 04:06:00,51.7,39.9,29.89,SW,234,4.0,8.0,64,0.00,,,0.00,0,Wunderground v.1.15,2013-01-16 03:06:00,
2013-01-16 04:12:00,51.1,40.1,29.89,WSW,239,4.0,4.0,66,0.00,,,0.00,0,Wunderground v.1.15,2013-01-16 03:12:00,
2013-01-16 04:19:00,50.9,40.3,29.89,West,261,4.0,7.0,67,0.00,,,0.00,0,Wunderground v.1.15,2013-01-16 03:19:00,
2013-01-16 04:26:00,51.3,40.7,29.89,WSW,244,6.0,7.0,67,0.00,,,0.00,0,Wunderground v.1.15,2013-01-16 03:26:00,
2013-01-16 04:32:00,51.4,40.8,29.89,WSW,242,4.0,9.0,67,0.00,,,0.00,0,Wunderground v.1.15,2013-01-16 03:32:00,
2013-01-16 04:40:00,51.2,41.4,29.88,WSW,238,8.0,10.0,69,0.00,,,0.00,0,Wunderground v.1.15,2013-01-16 03:40:00,
2013-01-16 04:46:00,51.0,41.6,29.87,WSW,244,9.0,10.0,70,0.00,,,0.00,0,Wunderground v.1.15,2013-01-16 03:46:00,
2013-01-16 04:52:00,50.9,41.5,29.88,WSW,252,8.0,9.0,70,0.00,,,0.00,0,Wunderground v.1.15,2013-01-16 03:52:00,
2013-01-16 04:58:00,50.8,41.7,29.87,WSW,252,4.0,9.0,71,0.00,,,0.00,0,Wunderground v.1.15,2013-01-16 03:58:00,
2013-01-16 05:06:00,50.6,41.5,29.87,WSW,253,2.0,6.0,71,0.00,,,0.00,0,Wunderground v.1.15,2013-01-16 04:06:00,
2013-01-16 05:12:00,50.6,41.5,29.86,WSW,254,3.0,6.0,71,0.00,,,0.00,0,Wunderground v.1.15,2013-01-16 04:12:00,
2013-01-16 05:19:00,50.8,42.1,29.86,WSW,248,5.0,10.0,72,0.00,,,0.00,0,Wunderground v.1.15,2013-01-16 04:19:00,
2013-01-16 05:26:00,51.0,41.9,29.86,West,266,7.0,8.0,71,0.00,,,0.00,0,Wunderground v.1.15,2013-01-16 04:26:00,
2013-01-16 05:32:00,51.0,42.3,29.86,WSW,254,5.0,5.0,72,0.00,,,0.00,0,Wunderground v.1.15,2013-01-16 04:32:00,
2013-01-16 05:38:00,51.1,42.4,29.85,WSW,254,5.0,7.0,72,0.00,,,0.00,0,Wunderground v.1.15,2013-01-16 04:38:00,
2013-01-16 05:44:00,51.3,42.2,29.85,WSW,248,7.0,7.0,71,0.00,,,0.00,0,Wunderground v.1.15,2013-01-16 04:44:00,
2013-01-16 05:50:00,51.2,42.1,29.85,WSW,249,8.0,8.0,71,0.00,,,0.00,0,Wunderground v.1.15,2013-01-16 04:50:00,
2013-01-16 05:56:00,51.3,42.6,29.84,SW,219,9.0,9.0,72,0.00,,,0.00,0,Wunderground v.1.15,2013-01-16 04:56:00,
2013-01-16 06:00:00,51.4,42.7,29.84,WSW,244,9.0,9.0,72,0.00,,,0.00,0,Wunderground v.1.15,2013-01-16 05:00:00,
2013-01-16 06:02:00,51.4,42.7,29.84,WSW,244,9.0,10.0,72,0.00,,,0.00,0,Wunderground v.1.15,2013-01-16 05:02:00,
2013-01-16 06:06:00,51.4,42.7,29.84,SW,229,9.0,10.0,72,0.00,,,0.00,0,Wunderground v.1.15,2013-01-16 05:06:00,
2013-01-16 06:10:00,51.5,42.8,29.84,West,261,9.0,11.0,72,0.00,,,0.00,0,Wunderground v.1.15,2013-01-16 05:10:00,
2013-01-16 06:16:00,51.8,43.1,29.84,West,263,11.0,11.0,72,0.00,,,0.00,0,Wunderground v.1.15,2013-01-16 05:16:00,
2013-01-16 06:22:00,52.2,43.4,29.84,WSW,243,11.0,15.0,72,0.00,,,0.00,0,Wunderground v.1.15,2013-01-16 05:22:00,
2013-01-16 06:28:00,52.5,43.7,29.83,WSW,253,12.0,15.0,72,0.00,,,0.00,0,Wunderground v.1.15,2013-01-16 05:28:00,
2013-01-16 06:36:00,52.8,43.7,29.84,WSW,251,14.0,14.0,71,0.00,,,0.00,0,Wunderground v.1.15,2013-01-16 05:36:00,
2013-01-16 06:42:00,52.8,43.7,29.83,WSW,248,11.0,12.0,71,0.00,,,0.00,0,Wunderground v.1.15,2013-01-16 05:42:00,
2013-01-16 06:49:00,53.0,43.5,29.83,WSW,239,10.0,12.0,70,0.00,,,0.00,0,Wunderground v.1.15,2013-01-16 05:49:00,
2013-01-16 06:54:00,53.0,43.5,29.83,WSW,258,10.0,13.0,70,0.00,,,0.00,0,Wunderground v.1.15,2013-01-16 05:54:00,
2013-01-16 07:00:00,53.0,43.5,29.83,West,259,10.0,10.0,70,0.00,,,0.00,0,Wunderground v.1.15,2013-01-16 06:00:00,
2013-01-16 07:06:00,53.1,43.9,29.83,WSW,249,12.0,20.0,71,0.00,,,0.00,0,Wunderground v.1.15,2013-01-16 06:06:00,
2013-01-16 07:12:00,53.1,44.3,29.82,WSW,239,16.0,20.0,72,0.00,,,0.00,0,Wunderground v.1.15,2013-01-16 06:12:00,
2013-01-16 07:18:00,53.0,44.2,29.82,WSW,248,16.0,20.0,72,0.00,,,0.00,0,Wunderground v.1.15,2013-01-16 06:18:00,
2013-01-16 07:26:00,53.1,43.9,29.82,West,267,15.0,17.0,71,0.00,,,0.00,0,Wunderground v.1.15,2013-01-16 06:26:00,
2013-01-16 07:32:00,53.3,43.8,29.82,West,259,14.0,14.0,70,0.00,,,0.00,0,Wunderground v.1.15,2013-01-16 06:32:00,
2013-01-16 07:40:00,53.2,44.0,29.82,WSW,245,14.0,14.0,71,0.00,,,0.00,0,Wunderground v.1.15,2013-01-16 06:40:00,
2013-01-16 07:46:00,53.0,44.2,29.82,SW,232,12.0,14.0,72,0.00,,,0.00,0,Wunderground v.1.15,2013-01-16 06:46:00,
2013-01-16 07:52:00,52.8,43.7,29.82,WSW,248,12.0,12.0,71,0.00,,,0.00,0,Wunderground v.1.15,2013-01-16 06:52:00,
2013-01-16 07:58:00,53.2,43.3,29.82,West,261,12.0,12.0,69,0.00,,,0.00,0,Wunderground v.1.15,2013-01-16 06:58:00,
2013-01-16 08:06:00,53.1,43.2,29.82,West,269,10.0,11.0,69,0.00,,,0.00,0,Wunderground v.1.15,2013-01-16 07:06:00,
2013-01-16 08:12:00,53.2,42.9,29.82,West,268,11.0,13.0,68,0.00,,,0.00,0,Wunderground v.1.15,2013-01-16 07:12:00,
2013-01-16 08:19:00,53.2,42.5,29.82,West,260,12.0,13.0,67,0.00,,,0.00,9,Wunderground v.1.15,2013-01-16 07:19:00,
2013-01-16 08:24:00,53.2,42.5,29.82,WSW,249,11.0,11.0,67,0.00,,,0.00,12,Wunderground v.1.15,2013-01-16 07:24:00,
2013-01-16 08:30:00,52.8,42.9,29.82,WSW,246,12.0,14.0,69,0.00,,,0.00,16,Wunderground v.1.15,2013-01-16 07:30:00,
2013-01-16 08:36:00,53.0,42.7,29.82,West,262,12.0,15.0,68,0.00,,,0.00,19,Wunderground v.1.15,2013-01-16 07:36:00,
2013-01-16 08:42:00,52.9,43.0,29.82,West,261,10.0,11.0,69,0.00,,,0.00,23,Wunderground v.1.15,2013-01-16 07:42:00,
2013-01-16 08:49:00,52.8,42.9,29.82,West,267,10.0,11.0,69,0.00,,,0.00,30,Wunderground v.1.15,2013-01-16 07:49:00,
2013-01-16 08:56:00,53.0,43.1,29.82,WSW,244,9.0,11.0,69,0.00,,,0.00,40,Wunderground v.1.15,2013-01-16 07:56:00,
2013-01-16 09:02:00,53.1,42.8,29.82,WNW,300,9.0,11.0,68,0.00,,,0.00,46,Wunderground v.1.15,2013-01-16 08:02:00,
2013-01-16 09:08:00,53.2,42.9,29.82,West,273,9.0,14.0,68,0.00,,,0.00,47,Wunderground v.1.15,2013-01-16 08:08:00,
2013-01-16 09:16:00,53.2,42.9,29.82,West,259,8.0,12.0,68,0.00,,,0.00,51,Wunderground v.1.15,2013-01-16 08:16:00,
2013-01-16 09:22:00,53.3,42.6,29.82,WNW,299,8.0,9.0,67,0.00,,,0.00,47,Wunderground v.1.15,2013-01-16 08:22:00,
2013-01-16 09:28:00,53.4,42.7,29.82,West,267,8.0,9.0,67,0.00,,,0.00,56,Wunderground v.1.15,2013-01-16 08:28:00,
2013-01-16 09:34:00,53.4,42.7,29.82,West,279,8.0,10.0,67,0.00,,,0.00,58,Wunderground v.1.15,2013-01-16 08:34:00,
2013-01-16 09:40:00,53.5,42.8,29.82,West,281,8.0,9.0,67,0.00,,,0.00,54,Wunderground v.1.15,2013-01-16 08:40:00,
2013-01-16 09:46:00,53.6,42.9,29.82,West,276,7.0,9.0,67,0.00,,,0.00,62,Wunderground v.1.15,2013-01-16 08:46:00,
2013-01-16 09:52:00,53.7,43.0,29.82,West,264,8.0,9.0,67,0.00,,,0.00,67,Wunderground v.1.15,2013-01-16 08:52:00,
2013-01-16 09:58:00,53.7,43.0,29.82,WNW,286,8.0,9.0,67,0.00,,,0.00,70,Wunderground v.1.15,2013-01-16 08:58:00,
2013-01-16 10:06:00,53.7,43.0,29.82,West,280,8.0,9.0,67,0.00,,,0.00,81,Wunderground v.1.15,2013-01-16 09:06:00,
2013-01-16 10:12:00,53.9,43.2,29.82,WNW,286,7.0,8.0,67,0.00,,,0.00,76,Wunderground v.1.15,2013-01-16 09:12:00,
2013-01-16 10:18:00,53.9,42.8,29.82,WNW,302,7.0,8.0,66,0.00,,,0.00,69,Wunderground v.1.15,2013-01-16 09:18:00,
2013-01-16 10:26:00,54.0,42.9,29.81,West,272,8.0,12.0,66,0.00,,,0.00,69,Wunderground v.1.15,2013-01-16 09:26:00,
2013-01-16 10:32:00,54.0,42.9,29.81,NW,309,8.0,8.0,66,0.00,,,0.00,67,Wunderground v.1.15,2013-01-16 09:32:00,
2013-01-16 10:38:00,53.8,42.7,29.81,NW,304,7.0,8.0,66,0.00,,,0.00,65,Wunderground v.1.15,2013-01-16 09:38:00,
2013-01-16 10:44:00,53.8,42.7,29.80,WNW,302,7.0,7.0,66,0.00,,,0.00,72,Wunderground v.1.15,2013-01-16 09:44:00,
2013-01-16 10:50:00,53.8,42.3,29.80,NNW,335,7.0,7.0,65,0.00,,,0.00,76,Wunderground v.1.15,2013-01-16 09:50:00,
2013-01-16 10:56:00,53.8,42.7,29.80,NW,323,7.0,7.0,66,0.00,,,0.00,79,Wunderground v.1.15,2013-01-16 09:56:00,
2013-01-16 11:02:00,53.8,42.3,29.80,WNW,291,6.0,10.0,65,0.00,,,0.00,104,Wunderground v.1.15,2013-01-16 10:02:00,
2013-01-16 11:09:00,54.0,42.1,29.80,WNW,289,8.0,10.0,64,0.00,,,0.00,77,Wunderground v.1.15,2013-01-16 10:09:00,
2013-01-16 11:16:00,54.0,42.1,29.80,West,279,10.0,11.0,64,0.00,,,0.00,79,Wunderground v.1.15,2013-01-16 10:16:00,
2013-01-16 11:22:00,54.1,42.2,29.79,WNW,294,10.0,12.0,64,0.00,,,0.00,107,Wunderground v.1.15,2013-01-16 10:22:00,
2013-01-16 11:28:00,54.2,42.3,29.79,NW,313,10.0,12.0,64,0.00,,,0.00,148,Wunderground v.1.15,2013-01-16 10:28:00,
2013-01-16 11:34:00,54.4,42.1,29.79,NW,309,9.0,11.0,63,0.00,,,0.00,146,Wunderground v.1.15,2013-01-16 10:34:00,
2013-01-16 11:40:00,54.5,41.7,29.78,WNW,282,8.0,9.0,62,0.00,,,0.00,127,Wunderground v.1.15,2013-01-16 10:40:00,
2013-01-16 11:46:00,54.6,41.4,29.78,West,269,8.0,9.0,61,0.00,,,0.00,121,Wunderground v.1.15,2013-01-16 10:46:00,
2013-01-16 11:52:00,54.7,41.5,29.77,WNW,284,9.0,9.0,61,0.00,,,0.00,114,Wunderground v.1.15,2013-01-16 10:52:00,
2013-01-16 11:59:00,54.6,41.4,29.77,West,277,9.0,9.0,61,0.00,,,0.00,137,Wunderground v.1.15,2013-01-16 10:59:00,
2013-01-16 12:04:00,54.6,41.4,29.76,WSW,253,8.0,11.0,61,0.00,,,0.00,149,Wunderground v.1.15,2013-01-16 11:04:00,
2013-01-16 12:10:00,54.6,41.0,29.76,West,279,8.0,8.0,60,0.00,,,0.00,172,Wunderground v.1.15,2013-01-16 11:10:00,
2013-01-16 12:16:00,54.8,41.2,29.76,West,281,10.0,10.0,60,0.00,,,0.00,186,Wunderground v.1.15,2013-01-16 11:16:00,
2013-01-16 12:22:00,54.9,40.8,29.76,WNW,299,12.0,16.0,59,0.00,,,0.00,181,Wunderground v.1.15,2013-01-16 11:22:00,
2013-01-16 12:30:00,55.0,40.9,29.75,WNW,293,11.0,11.0,59,0.00,,,0.00,246,Wunderground v.1.15,2013-01-16 11:30:00,
2013-01-16 12:36:00,55.4,40.9,29.75,NW,313,9.0,11.0,58,0.00,,,0.00,327,Wunderground v.1.15,2013-01-16 11:36:00,
2013-01-16 12:42:00,55.7,40.7,29.75,NW,313,11.0,11.0,57,0.00,,,0.00,278,Wunderground v.1.15,2013-01-16 11:42:00,
2013-01-16 12:48:00,55.5,40.0,29.74,NW,310,12.0,17.0,56,0.00,,,0.00,220,Wunderground v.1.15,2013-01-16 11:48:00,
2013-01-16 12:56:00,55.5,40.0,29.74,NW,322,11.0,12.0,56,0.00,,,0.00,230,Wunderground v.1.15,2013-01-16 11:56:00,
2013-01-16 13:02:00,55.3,39.4,29.73,WNW,299,12.0,16.0,55,0.00,,,0.00,218,Wunderground v.1.15,2013-01-16 12:02:00,
2013-01-16 13:08:00,55.3,38.9,29.73,WNW,288,15.0,25.0,54,0.00,,,0.00,211,Wunderground v.1.15,2013-01-16 12:08:00,
2013-01-16 13:14:00,55.2,39.8,29.73,WNW,296,15.0,19.0,56,0.00,,,0.00,221,Wunderground v.1.15,2013-01-16 12:14:00,
2013-01-16 13:20:00,55.5,39.6,29.72,WNW,286,15.0,15.0,55,0.00,,,0.00,311,Wunderground v.1.15,2013-01-16 12:20:00,
2013-01-16 13:26:00,55.9,39.5,29.72,West,273,14.0,19.0,54,0.00,,,0.00,399,Wunderground v.1.15,2013-01-16 12:26:00,
2013-01-16 13:32:00,56.0,39.6,29.71,West,281,14.0,22.0,54,0.00,,,0.00,214,Wunderground v.1.15,2013-01-16 12:32:00,
2013-01-16 13:38:00,55.9,39.5,29.71,WNW,285,13.0,24.0,54,0.00,,,0.00,207,Wunderground v.1.15,2013-01-16 12:38:00,
2013-01-16 13:44:00,55.7,39.8,29.71,WNW,302,15.0,26.0,55,0.00,,,0.00,221,Wunderground v.1.15,2013-01-16 12:44:00,
2013-01-16 13:50:00,55.7,40.2,29.70,WNW,290,13.0,16.0,56,0.00,,,0.00,236,Wunderground v.1.15,2013-01-16 12:50:00,
2013-01-16 13:56:00,56.1,40.1,29.70,WNW,286,14.0,16.0,55,0.00,,,0.00,512,Wunderground v.1.15,2013-01-16 12:56:00,
2013-01-16 14:02:00,56.9,39.9,29.70,West,273,12.0,13.0,53,0.00,,,0.00,327,Wunderground v.1.15,2013-01-16 13:02:00,
2013-01-16 14:08:00,57.1,40.6,29.70,West,280,9.0,14.0,54,0.00,,,0.00,441,Wunderground v.1.15,2013-01-16 13:08:00,
2013-01-16 14:16:00,57.3,39.8,29.69,WSW,241,11.0,11.0,52,0.00,,,0.00,381,Wunderground v.1.15,2013-01-16 13:16:00,
2013-01-16 14:22:00,57.2,40.2,29.69,West,261,14.0,14.0,53,0.00,,,0.00,348,Wunderground v.1.15,2013-01-16 13:22:00,
2013-01-16 14:28:00,57.5,41.0,29.69,WSW,242,12.0,14.0,54,0.00,,,0.00,496,Wunderground v.1.15,2013-01-16 13:28:00,
2013-01-16 14:34:00,57.9,40.9,29.68,West,269,12.0,16.0,53,0.00,,,0.00,450,Wunderground v.1.15,2013-01-16 13:34:00,
2013-01-16 14:40:00,58.1,41.5,29.69,WNW,292,12.0,13.0,54,0.00,,,0.00,490,Wunderground v.1.15,2013-01-16 13:40:00,
2013-01-16 14:46:00,58.4,40.8,29.68,West,279,12.0,14.0,52,0.00,,,0.00,594,Wunderground v.1.15,2013-01-16 13:46:00,
2013-01-16 14:52:00,58.7,41.6,29.68,SW,236,12.0,15.0,53,0.00,,,0.00,352,Wunderground v.1.15,2013-01-16 13:52:00,
2013-01-16 14:58:00,58.3,41.2,29.68,West,274,11.0,15.0,53,0.00,,,0.00,176,Wunderground v.1.15,2013-01-16 13:58:00,
2013-01-16 15:06:00,57.5,41.4,29.68,WSW,239,10.0,12.0,55,0.00,,,0.00,265,Wunderground v.1.15,2013-01-16 14:06:00,
2013-01-16 15:12:00,57.8,41.3,29.68,WSW,252,11.0,17.0,54,0.00,,,0.00,380,Wunderground v.1.15,2013-01-16 14:12:00,
2013-01-16 15:19:00,58.4,40.8,29.67,WSW,246,13.0,19.0,52,0.00,,,0.00,487,Wunderground v.1.15,2013-01-16 14:19:00,
2013-01-16 15:26:00,58.2,41.1,29.66,West,268,16.0,21.0,53,0.00,,,0.00,316,Wunderground v.1.15,2013-01-16 14:26:00,
2013-01-16 15:32:00,58.1,41.0,29.66,WSW,253,18.0,19.0,53,0.00,,,0.00,329,Wunderground v.1.15,2013-01-16 14:32:00,
2013-01-16 15:39:00,58.1,41.5,29.66,WSW,246,17.0,19.0,54,0.00,,,0.00,322,Wunderground v.1.15,2013-01-16 14:39:00,
2013-01-16 15:46:00,58.2,42.1,29.66,WSW,250,16.0,18.0,55,0.00,,,0.00,320,Wunderground v.1.15,2013-01-16 14:46:00,
2013-01-16 15:52:00,58.3,41.7,29.66,West,262,17.0,18.0,54,0.00,,,0.00,374,Wunderground v.1.15,2013-01-16 14:52:00,
2013-01-16 15:59:00,58.5,41.9,29.66,WSW,253,16.0,18.0,54,0.00,,,0.00,339,Wunderground v.1.15,2013-01-16 14:59:00,
2013-01-16 16:06:00,58.1,41.5,29.66,West,267,17.0,17.0,54,0.00,,,0.00,162,Wunderground v.1.15,2013-01-16 15:06:00,
2013-01-16 16:12:00,57.8,41.7,29.66,WSW,242,17.0,21.0,55,0.00,,,0.00,158,Wunderground v.1.15,2013-01-16 15:12:00,
2013-01-16 16:18:00,57.7,42.1,29.66,WSW,256,17.0,21.0,56,0.00,,,0.00,294,Wunderground v.1.15,2013-01-16 15:18:00,
2013-01-16 16:24:00,57.8,42.2,29.66,WSW,248,16.0,20.0,56,0.00,,,0.00,200,Wunderground v.1.15,2013-01-16 15:24:00,
2013-01-16 16:30:00,57.8,42.7,29.65,WSW,250,15.0,15.0,57,0.00,,,0.00,206,Wunderground v.1.15,2013-01-16 15:30:00,
2013-01-16 16:36:00,57.7,43.0,29.65,West,268,14.0,16.0,58,0.00,,,0.00,186,Wunderground v.1.15,2013-01-16 15:36:00,
2013-01-16 16:42:00,57.3,42.6,29.64,WSW,251,16.0,21.0,58,0.00,,,0.00,142,Wunderground v.1.15,2013-01-16 15:42:00,
2013-01-16 16:48:00,57.0,43.2,29.65,WSW,244,19.0,23.0,60,0.00,,,0.00,132,Wunderground v.1.15,2013-01-16 15:48:00,
2013-01-16 16:54:00,56.7,43.4,29.64,WSW,250,18.0,23.0,61,0.00,,,0.00,98,Wunderground v.1.15,2013-01-16 15:54:00,
2013-01-16 17:00:00,56.3,43.9,29.64,West,264,18.0,23.0,63,0.00,,,0.00,67,Wunderground v.1.15,2013-01-16 16:00:00,
2013-01-16 17:06:00,56.0,44.0,29.63,West,262,20.0,24.0,64,0.00,,,0.00,44,Wunderground v.1.15,2013-01-16 16:06:00,
2013-01-16 17:12:00,55.8,43.8,29.64,WSW,249,21.0,23.0,64,0.00,,,0.00,37,Wunderground v.1.15,2013-01-16 16:12:00,
2013-01-16 17:20:00,55.8,43.8,29.64,WSW,246,21.0,21.0,64,0.00,,,0.00,21,Wunderground v.1.15,2013-01-16 16:20:00,
2013-01-16 17:26:00,55.7,43.7,29.63,WSW,246,20.0,21.0,64,0.00,,,0.00,18,Wunderground v.1.15,2013-01-16 16:26:00,
2013-01-16 17:32:00,55.7,43.3,29.63,WSW,241,19.0,19.0,63,0.00,,,0.00,16,Wunderground v.1.15,2013-01-16 16:32:00,
2013-01-16 17:40:00,55.6,43.2,29.63,WSW,252,18.0,19.0,63,0.00,,,0.00,9,Wunderground v.1.15,2013-01-16 16:40:00,
2013-01-16 17:46:00,55.7,42.9,29.63,WSW,241,18.0,21.0,62,0.00,,,0.00,0,Wunderground v.1.15,2013-01-16 16:46:00,
2013-01-16 17:52:00,55.6,42.8,29.62,WSW,249,19.0,25.0,62,0.00,,,0.00,0,Wunderground v.1.15,2013-01-16 16:52:00,
2013-01-16 17:59:00,55.7,42.9,29.63,WSW,242,19.0,25.0,62,0.00,,,0.00,0,Wunderground v.1.15,2013-01-16 16:59:00,
2013-01-16 18:06:00,55.5,43.1,29.63,WSW,252,19.0,20.0,63,0.00,,,0.00,0,Wunderground v.1.15,2013-01-16 17:06:00,
2013-01-16 18:12:00,55.7,42.9,29.63,WSW,254,19.0,26.0,62,0.00,,,0.00,0,Wunderground v.1.15,2013-01-16 17:12:00,
2013-01-16 18:19:00,55.8,43.0,29.63,WSW,249,19.0,26.0,62,0.00,,,0.00,0,Wunderground v.1.15,2013-01-16 17:19:00,
2013-01-16 18:26:00,55.5,43.1,29.62,WSW,240,18.0,20.0,63,0.00,,,0.00,0,Wunderground v.1.15,2013-01-16 17:26:00,
2013-01-16 18:32:00,55.5,43.5,29.62,WSW,240,18.0,19.0,64,0.00,,,0.00,0,Wunderground v.1.15,2013-01-16 17:32:00,
2013-01-16 18:39:00,55.8,43.8,29.62,WSW,248,18.0,19.0,64,0.00,,,0.00,0,Wunderground v.1.15,2013-01-16 17:39:00,
2013-01-16 18:46:00,56.2,44.2,29.62,WSW,245,18.0,23.0,64,0.00,,,0.00,0,Wunderground v.1.15,2013-01-16 17:46:00,
2013-01-16 18:52:00,56.2,44.2,29.62,WSW,246,17.0,20.0,64,0.00,,,0.00,0,Wunderground v.1.15,2013-01-16 17:52:00,
2013-01-16 19:00:00,56.4,44.8,29.61,WSW,251,19.0,28.0,65,0.00,,,0.00,0,Wunderground v.1.15,2013-01-16 18:00:00,
2013-01-16 19:06:00,56.4,44.8,29.62,WSW,241,21.0,28.0,65,0.00,,,0.00,0,Wunderground v.1.15,2013-01-16 18:06:00,
2013-01-16 19:12:00,56.5,44.5,29.62,WSW,257,21.0,22.0,64,0.00,,,0.00,0,Wunderground v.1.15,2013-01-16 18:12:00,
2013-01-16 19:20:00,56.4,44.8,29.62,SW,233,18.0,19.0,65,0.00,,,0.00,0,Wunderground v.1.15,2013-01-16 18:20:00,
2013-01-16 19:26:00,56.8,44.7,29.63,WSW,250,19.0,24.0,64,0.00,,,0.00,0,Wunderground v.1.15,2013-01-16 18:26:00,
2013-01-16 19:32:00,56.6,44.6,29.62,WSW,247,18.0,21.0,64,0.00,,,0.00,0,Wunderground v.1.15,2013-01-16 18:32:00,
2013-01-16 19:38:00,56.8,44.7,29.62,WSW,244,18.0,21.0,64,0.00,,,0.00,0,Wunderground v.1.15,2013-01-16 18:38:00,
2013-01-16 19:46:00,57.0,44.5,29.62,WSW,239,20.0,24.0,63,0.00,,,0.00,0,Wunderground v.1.15,2013-01-16 18:46:00,
2013-01-16 19:52:00,56.6,44.6,29.62,WSW,240,18.0,19.0,64,0.00,,,0.00,0,Wunderground v.1.15,2013-01-16 18:52:00,
2013-01-16 19:59:00,56.6,44.1,29.61,West,259,16.0,22.0,63,0.00,,,0.00,0,Wunderground v.1.15,2013-01-16 18:59:00,
2013-01-16 20:06:00,56.8,44.3,29.62,WSW,245,14.0,15.0,63,0.00,,,0.00,0,Wunderground v.1.15,2013-01-16 19:06:00,
2013-01-16 20:12:00,56.8,44.3,29.63,WSW,246,14.0,14.0,63,0.00,,,0.00,0,Wunderground v.1.15,2013-01-16 19:12:00,
2013-01-16 20:18:00,56.7,44.2,29.62,WSW,250,14.0,18.0,63,0.00,,,0.00,0,Wunderground v.1.15,2013-01-16 19:18:00,
2013-01-16 20:24:00,56.8,44.3,29.61,WSW,238,16.0,20.0,63,0.00,,,0.00,0,Wunderground v.1.15,2013-01-16 19:24:00,
2013-01-16 20:30:00,56.7,44.2,29.61,WSW,250,17.0,17.0,63,0.00,,,0.00,0,Wunderground v.1.15,2013-01-16 19:30:00,
2013-01-16 20:36:00,56.7,44.2,29.62,WSW,238,18.0,18.0,63,0.00,,,0.00,0,Wunderground v.1.15,2013-01-16 19:36:00,
2013-01-16 20:42:00,56.9,44.4,29.61,WSW,251,17.0,18.0,63,0.00,,,0.00,0,Wunderground v.1.15,2013-01-16 19:42:00,
2013-01-16 20:48:00,56.9,44.4,29.61,WSW,251,17.0,20.0,63,0.00,,,0.00,0,Wunderground v.1.15,2013-01-16 19:48:00,
2013-01-16 20:56:00,56.5,44.5,29.61,WSW,240,15.0,16.0,64,0.00,,,0.00,0,Wunderground v.1.15,2013-01-16 19:56:00,
2013-01-16 21:02:00,56.8,44.3,29.61,WSW,252,16.0,26.0,63,0.00,,,0.00,0,Wunderground v.1.15,2013-01-16 20:02:00,
2013-01-16 21:08:00,56.9,44.4,29.62,WSW,238,15.0,26.0,63,0.00,,,0.00,0,Wunderground v.1.15,2013-01-16 20:08:00,
2013-01-16 21:16:00,57.0,44.1,29.63,WSW,240,11.0,14.0,62,0.00,,,0.00,0,Wunderground v.1.15,2013-01-16 20:16:00,
2013-01-16 21:22:00,57.0,44.1,29.63,WSW,250,10.0,10.0,62,0.00,,,0.00,0,Wunderground v.1.15,2013-01-16 20:22:00,
2013-01-16 21:28:00,57.0,44.1,29.62,WSW,242,9.0,10.0,62,0.00,,,0.00,0,Wunderground v.1.15,2013-01-16 20:28:00,
2013-01-16 21:34:00,57.0,44.1,29.63,WSW,250,9.0,20.0,62,0.00,,,0.00,0,Wunderground v.1.15,2013-01-16 20:34:00,
2013-01-16 21:40:00,57.5,43.3,29.62,WSW,238,12.0,16.0,59,0.00,,,0.00,0,Wunderground v.1.15,2013-01-16 20:40:00,
2013-01-16 21:46:00,58.1,44.3,29.63,WSW,256,11.0,16.0,60,0.00,,,0.00,0,Wunderground v.1.15,2013-01-16 20:46:00,
2013-01-16 21:52:00,57.7,44.3,29.62,SW,236,8.0,13.0,61,0.00,,,0.00,0,Wunderground v.1.15,2013-01-16 20:52:00,
2013-01-16 21:59:00,57.6,44.2,29.63,WSW,240,12.0,14.0,61,0.00,,,0.00,0,Wunderground v.1.15,2013-01-16 20:59:00,
2013-01-16 22:06:00,57.6,44.2,29.63,WSW,245,11.0,16.0,61,0.00,,,0.00,0,Wunderground v.1.15,2013-01-16 21:06:00,
2013-01-16 22:12:00,57.6,44.7,29.63,WSW,246,10.0,13.0,62,0.00,,,0.00,0,Wunderground v.1.15,2013-01-16 21:12:00,
2013-01-16 22:18:00,57.5,44.6,29.63,West,260,9.0,16.0,62,0.00,,,0.00,0,Wunderground v.1.15,2013-01-16 21:18:00,
2013-01-16 22:26:00,57.1,45.0,29.63,WNW,289,8.0,12.0,64,0.00,,,0.00,0,Wunderground v.1.15,2013-01-16 21:26:00,
2013-01-16 22:32:00,57.1,45.0,29.63,WSW,242,8.0,9.0,64,0.00,,,0.00,0,Wunderground v.1.15,2013-01-16 21:32:00,
2013-01-16 22:40:00,56.8,45.2,29.64,WNW,284,4.0,4.0,65,0.00,,,0.00,0,Wunderground v.1.15,2013-01-16 21:40:00,
2013-01-16 22:46:00,56.5,44.9,29.63,WSW,242,4.0,4.0,65,0.00,,,0.00,0,Wunderground v.1.15,2013-01-16 21:46:00,
2013-01-16 22:52:00,56.6,45.4,29.63,WSW,248,7.0,13.0,66,0.00,,,0.00,0,Wunderground v.1.15,2013-01-16 21:52:00,
2013-01-16 22:58:00,57.1,45.4,29.63,WSW,245,12.0,15.0,65,0.00,,,0.00,0,Wunderground v.1.15,2013-01-16 21:58:00,
2013-01-16 23:04:00,57.3,45.6,29.63,WSW,252,12.0,16.0,65,0.00,,,0.00,0,Wunderground v.1.15,2013-01-16 22:04:00,
2013-01-16 23:10:00,57.5,45.4,29.63,WSW,248,11.0,11.0,64,0.00,,,0.00,0,Wunderground v.1.15,2013-01-16 22:10:00,
2013-01-16 23:16:00,57.5,45.4,29.63,WSW,248,10.0,11.0,64,0.00,,,0.00,0,Wunderground v.1.15,2013-01-16 22:16:00,
2013-01-16 23:22:00,57.4,45.7,29.63,WSW,246,10.0,15.0,65,0.00,,,0.00,0,Wunderground v.1.15,2013-01-16 22:22:00,
2013-01-16 23:29:00,57.5,45.4,29.63,WSW,249,11.0,15.0,64,0.00,,,0.00,0,Wunderground v.1.15,2013-01-16 22:29:00,
2013-01-16 23:34:00,57.5,45.8,29.63,SW,235,10.0,13.0,65,0.00,,,0.00,0,Wunderground v.1.15,2013-01-16 22:34:00,
2013-01-16 23:40:00,57.7,45.6,29.63,WSW,249,9.0,9.0,64,0.00,,,0.00,0,Wunderground v.1.15,2013-01-16 22:40:00,
2013-01-16 23:46:00,57.6,45.9,29.63,WSW,250,7.0,10.0,65,0.00,,,0.00,0,Wunderground v.1.15,2013-01-16 22:46:00,
2013-01-16 23:52:00,57.8,45.7,29.63,WSW,242,11.0,12.0,64,0.00,,,0.00,0,Wunderground v.1.15,2013-01-16 22:52:00,
2013-01-16 23:58:00,57.9,45.8,29.63,WSW,248,13.0,13.0,64,0.00,,,0.00,0,Wunderground v.1.15,2013-01-16 22:58:00,